P/2014 E1 ( Larson )

Japanese version
Home page
Updated on June 11, 2016

---------------------------------------------------------------------

* Profile

Discovery Date March 10, 2014
Magnitude 16.8 mag
Discoverer Stephen M. Larson (Catalina Sky Survey)

* Pictures

* Orbital Elements

Epoch 2014 May 23.0 TT = JDT 2456800.5
T 2014 May 22.02045 TT                                  MPCW
q   2.1411172            (2000.0)            P               Q
n   0.13781301     Peri.  185.81670     -0.71073514     +0.68170915
a   3.7120108      Node    39.08928     -0.63380632     -0.51351140
e   0.4231921      Incl.   15.97892     -0.30519684     -0.52113211
P   7.15
From 356 observations 2014 Jan. 6-Aug. 27, mean residual 0".5.

* Finding Charts

* Magnitudes Graph

        m1 = 11.0 + 5 log d + 15.0 log r

---------------------------------------------------------------------

The orbital elements are published on M.P.E.C. 2014-Y44.
The charts are made with StellaNavigator Ver.8 (AstroArts).
The magnitudes graphs are made with Comet for Windows.

---------------------------------------------------------------------

Copyright(C) Seiichi Yoshida (comet@aerith.net). All rights reserved.